Location: Grossmotten
(48.5500°N, 15.3833°E)
Time: 08:03:37
(UTC+00:00)

COSMOS 2406 - Pass Details

Date: 15 November 2019
Orbit: 843 x 864 km, 71.0° (Epoch: 11 December)

Event Time Altitude Azimuth Distance (km) Brightness Sun altitude
Exits shadow 03:02:00 38° 7° (N) 1,302 4.2 -30.3°
Drops below altitude 10° 03:05:36 10° 23° (NNE) 2,513 6.0 -29.7°
Sets 03:08:06 0° 27° (NNE) 3,452 6.8 -29.3°
